Location: Highridge
(54.0333°N, 114.1333°W)
Time: 12:13:05
(UTC+00:00)

Oscar 19 - Pass Details

Date: 01 December 2023
Orbit: 771 x 789 km, 98.9° (Epoch: 01 March)

Event Time Altitude Azimuth Distance (km) Brightness Sun altitude
Rises 12:29:06 0° 17° (NNE) 3,270 14.0 -25.7°
Reaches altitude 10° 12:31:26 10° 19° (NNE) 2,340 13.3 -25.3°
Maximum altitude 12:36:36 75° 105° (ESE) 813 10.7 -24.6°
Drops below altitude 10° 12:41:45 10° 191° (S) 2,335 13.0 -23.8°
Sets 12:44:04 0° 193° (SSW) 3,261 13.8 -23.5°
